This is the latest recevied weather packets stored in our database for station/object N3TJJ-11. If no packets are shown the sender has not sent any weather packets the latest 1 day(s).
| Time | Temp. | Humidity | Pressure | Rain* | Wind** | Luminosity | Snow |
|---|---|---|---|---|---|---|---|
| 1778072023 | 15.56° C | 85% | 1006.7 hPa | 0 mm | - | - | - |
| 1778070823 | 15.56° C | 84% | 1006.9 hPa | 0 mm | - | - | - |
| 1778069624 | 16.11° C | 83% | 1006.9 hPa | 0 mm | - | - | - |
| 1778061833 | 16.11° C | 82% | 1006 hPa | 0 mm | - | - | - |
| 1778061223 | 16.11° C | 81% | 1005.8 hPa | 0 mm | - | - | - |
| 1778060024 | 16.11° C | 80% | 1005.8 hPa | 0 mm | - | - | - |
| 1778054627 | 16.67° C | 76% | 1006.3 hPa | 0 mm | - | - | - |
| 1778052824 | 17.22° C | 74% | 1006.5 hPa | 0 mm | - | - | - |
| 1778051024 | 17.22° C | 73% | 1006.7 hPa | 0 mm | - | - | - |
| 1778049225 | 17.22° C | 71% | 1007 hPa | 0 mm | - | - | - |
| 1778047425 | 17.22° C | 69% | 1007.3 hPa | 0 mm | - | - | - |
| 1778046825 | 17.78° C | 68% | 1007.3 hPa | 0 mm | - | - | - |
| 1778046224 | 17.78° C | 68% | 1007.4 hPa | 0 mm | - | - | - |
| 1778045625 | 17.78° C | 68% | 1007.5 hPa | 0 mm | - | - | - |
| 1778045024 | 17.78° C | 67% | 1007.6 hPa | 0 mm | - | - | - |
| 1778043227 | 17.78° C | 65% | 1007.8 hPa | 0 mm | - | - | - |
| 1778042626 | 17.78° C | 65% | 1007.8 hPa | 0 mm | - | - | - |
| 1778040224 | 17.78° C | 62% | 1007.8 hPa | 0 mm | - | - | - |
| 1778039625 | 18.33° C | 61% | 1007.9 hPa | 0 mm | - | - | - |
| 1778038426 | 18.33° C | 60% | 1007.8 hPa | 0 mm | - | - | - |
| 1778037824 | 18.33° C | 60% | 1007.8 hPa | 0 mm | - | - | - |
| 1778037224 | 18.33° C | 61% | 1007.9 hPa | 0 mm | - | - | - |
| 1778036624 | 18.33° C | 60% | 1007.8 hPa | 0 mm | - | - | - |
| 1778036269 | 18.33° C | 61% | 1007.9 hPa | 0 mm | - | - | - |
| 1778036026 | 18.33° C | 61% | 1007.8 hPa | 0 mm | - | - | - |
* Rain latest hour (hover to see other rain measurements)
** Current wind speed in m/s (hover to see current wind gust speed)